• In Latvia
  • List of Countries
  • For 7 days
  • Water Temperature
  • Satellite Maps
  • Weather Map
  • Weather Widgets
  • user-avatar
    Login

    Hourly Weather Shofirkon

    Today, 24 September, Monday

    Time Temperature Precipitation Wind Pressure Humidity
    00:00 +22°C° 0 mm 3 mps 742 mmHg 29%
    01:00 +21°C° 0 mm 3 mps 742 mmHg 30%
    02:00 +21°C° 0 mm 3 mps 742 mmHg 32%
    03:00 +20°C° 0 mm 3 mps 742 mmHg 33%
    04:00 +20°C° 0 mm 3 mps 742 mmHg 34%
    05:00 +20°C° 0 mm 3 mps 742 mmHg 33%
    06:00 +21°C° 0 mm 3 mps 742 mmHg 32%
    07:00 +21°C° 0 mm 4 mps 742 mmHg 31%
    08:00 +23°C° 0 mm 4 mps 742 mmHg 28%
    09:00 +26°C° 0 mm 4 mps 743 mmHg 25%
    10:00 +28°C° 0 mm 4 mps 743 mmHg 22%
    11:00 +29°C° 0 mm 4 mps 742 mmHg 20%
    12:00 +29°C° 0 mm 4 mps 742 mmHg 18%
    13:00 +30°C° 0 mm 4 mps 742 mmHg 16%
    14:00 +30°C° 0 mm 5 mps 742 mmHg 16%
    15:00 +30°C° 0 mm 5 mps 742 mmHg 16%
    16:00 +30°C° 0 mm 6 mps 741 mmHg 15%
    17:00 +29°C° 0 mm 6 mps 742 mmHg 17%
    18:00 +28°C° 0 mm 6 mps 742 mmHg 19%
    19:00 +27°C° 0 mm 6 mps 742 mmHg 21%
    20:00 +26°C° 0 mm 6 mps 742 mmHg 22%
    21:00 +24°C° 0 mm 7 mps 742 mmHg 22%
    22:00 +23°C° 0 mm 7 mps 742 mmHg 23%
    23:00 +23°C° 0 mm 7 mps 742 mmHg 24%

    Tomorrow, 25 September, Tuesday

    Time Temperature Precipitation Wind Pressure Humidity
    00:00 +22°C° 0 mm 6 mps 741 mmHg 25%
    01:00 +21°C° 0 mm 6 mps 741 mmHg 26%
    02:00 +21°C° 0 mm 6 mps 741 mmHg 27%
    03:00 +20°C° 0 mm 6 mps 741 mmHg 28%
    04:00 +20°C° 0 mm 6 mps 741 mmHg 29%
    05:00 +20°C° 0 mm 6 mps 741 mmHg 28%
    06:00 +20°C° 0 mm 6 mps 741 mmHg 28%
    07:00 +21°C° 0 mm 6 mps 741 mmHg 27%
    08:00 +23°C° 0 mm 6 mps 741 mmHg 24%
    09:00 +26°C° 0 mm 6 mps 741 mmHg 21%
    10:00 +28°C° 0 mm 6 mps 741 mmHg 17%
    11:00 +29°C° 0 mm 6 mps 741 mmHg 16%
    12:00 +30°C° 0 mm 5 mps 741 mmHg 14%
    13:00 +32°C° 0 mm 5 mps 740 mmHg 13%
    14:00 +32°C° 0 mm 6 mps 740 mmHg 12%
    15:00 +32°C° 0 mm 6 mps 740 mmHg 12%
    16:00 +32°C° 0 mm 6 mps 739 mmHg 12%
    17:00 +29°C° 0 mm 6 mps 739 mmHg 13%
    18:00 +28°C° 0 mm 6 mps 739 mmHg 14%
    19:00 +26°C° 0 mm 6 mps 739 mmHg 15%
    20:00 +26°C° 0 mm 6 mps 739 mmHg 16%
    21:00 +24°C° 0 mm 6 mps 739 mmHg 17%
    22:00 +23°C° 0 mm 5 mps 739 mmHg 18%
    23:00 +23°C° 0 mm 5 mps 739 mmHg 19%

    Day after tomorrow, 26 September, Wednesday

    Time Temperature Precipitation Wind Pressure Humidity
    00:00 +22°C° 0 mm 5 mps 739 mmHg 21%
    01:00 +21°C° 0 mm 4 mps 738 mmHg 22%
    02:00 +21°C° 0 mm 4 mps 739 mmHg 23%
    03:00 +20°C° 0 mm 4 mps 739 mmHg 23%
    04:00 +20°C° 0 mm 4 mps 739 mmHg 24%
    05:00 +20°C° 0 mm 4 mps 739 mmHg 24%
    06:00 +21°C° 0 mm 5 mps 739 mmHg 23%
    07:00 +21°C° 0 mm 5 mps 739 mmHg 23%
    08:00 +25°C° 0 mm 5 mps 739 mmHg 20%
    09:00 +27°C° 0 mm 4 mps 739 mmHg 17%
    10:00 +29°C° 0 mm 4 mps 739 mmHg 15%
    11:00 +30°C° 0 mm 4 mps 739 mmHg 14%
    12:00 +31°C° 0 mm 3 mps 739 mmHg 12%
    13:00 +33°C° 0 mm 3 mps 739 mmHg 11%
    14:00 +33°C° 0 mm 3 mps 739 mmHg 11%
    15:00 +33°C° 0 mm 4 mps 738 mmHg 11%
    16:00 +33°C° 0 mm 5 mps 738 mmHg 11%
    17:00 +30°C° 0 mm 5 mps 739 mmHg 12%
    18:00 +29°C° 0 mm 5 mps 739 mmHg 13%
    19:00 +27°C° 0 mm 5 mps 739 mmHg 14%
    20:00 +26°C° 0 mm 4 mps 739 mmHg 15%
    21:00 +26°C° 0 mm 4 mps 739 mmHg 16%
    22:00 +25°C° 0 mm 4 mps 739 mmHg 16%
    23:00 +24°C° 0 mm 3 mps 739 mmHg 17%

    27 September, Thursday

    Time Temperature Precipitation Wind Pressure Humidity
    00:00 +24°C° 0 mm 3 mps 739 mmHg 18%
    01:00 +22°C° 0 mm 3 mps 739 mmHg 18%
    02:00 +22°C° 0 mm 3 mps 739 mmHg 19%
    03:00 +21°C° 0 mm 3 mps 739 mmHg 19%
    04:00 +21°C° 0 mm 3 mps 740 mmHg 20%
    05:00 +21°C° 0 mm 3 mps 740 mmHg 20%
    06:00 +22°C° 0 mm 3 mps 740 mmHg 19%
    07:00 +22°C° 0 mm 3 mps 740 mmHg 19%
    08:00 +25°C° 0 mm 3 mps 740 mmHg 17%
    09:00 +27°C° 0 mm 3 mps 741 mmHg 16%
    10:00 +29°C° 0 mm 3 mps 741 mmHg 14%
    11:00 +30°C° 0 mm 3 mps 741 mmHg 13%
    12:00 +30°C° 0 mm 3 mps 740 mmHg 12%
    13:00 +32°C° 0 mm 4 mps 740 mmHg 11%
    14:00 +32°C° 0 mm 4 mps 740 mmHg 11%
    15:00 +32°C° 0 mm 4 mps 740 mmHg 11%
    16:00 +32°C° 0 mm 4 mps 740 mmHg 11%
    17:00 +30°C° 0 mm 4 mps 741 mmHg 12%
    18:00 +28°C° 0 mm 3 mps 741 mmHg 13%
    19:00 +27°C° 0 mm 3 mps 741 mmHg 14%
    20:00 +26°C° 0 mm 3 mps 741 mmHg 15%
    21:00 +25°C° 0 mm 3 mps 741 mmHg 15%
    22:00 +24°C° 0 mm 3 mps 741 mmHg 16%
    23:00 +24°C° 0 mm 3 mps 741 mmHg 16%

    28 September, Friday

    Time Temperature Precipitation Wind Pressure Humidity
    00:00 +22°C° 0 mm 3 mps 741 mmHg 17%
    01:00 +21°C° 0 mm 3 mps 741 mmHg 17%
    02:00 +21°C° 0 mm 3 mps 741 mmHg 18%
    03:00 +20°C° 0 mm 2 mps 741 mmHg 19%
    04:00 +20°C° 0 mm 2 mps 742 mmHg 20%
    05:00 +20°C° 0 mm 2 mps 742 mmHg 20%
    06:00 +21°C° 0 mm 2 mps 742 mmHg 20%
    07:00 +23°C° 0 mm 2 mps 743 mmHg 20%
    08:00 +24°C° 0 mm 2 mps 743 mmHg 18%
    09:00 +26°C° 0 mm 3 mps 743 mmHg 16%
    10:00 +28°C° 0 mm 3 mps 743 mmHg 15%
    11:00 +29°C° 0 mm 3 mps 743 mmHg 13%
    12:00 +29°C° 0 mm 3 mps 743 mmHg 12%
    13:00 +30°C° 0 mm 3 mps 743 mmHg 11%
    14:00 +30°C° 0 mm 3 mps 743 mmHg 11%
    15:00 +30°C° 0 mm 4 mps 743 mmHg 11%
    16:00 +30°C° 0 mm 4 mps 743 mmHg 10%
    17:00 +29°C° 0 mm 4 mps 743 mmHg 12%
    18:00 +27°C° 0 mm 3 mps 743 mmHg 13%
    19:00 +26°C° 0 mm 3 mps 744 mmHg 14%
    20:00 +25°C° 0 mm 4 mps 744 mmHg 15%
    21:00 +25°C° 0 mm 4 mps 744 mmHg 16%
    22:00 +23°C° 0 mm 4 mps 744 mmHg 17%
    23:00 +22°C° 0 mm 4 mps 744 mmHg 18%

    29 September, Saturday

    Time Temperature Precipitation Wind Pressure Humidity
    00:00 +22°C° 0 mm 4 mps 743 mmHg 19%
    01:00 +21°C° 0 mm 4 mps 743 mmHg 20%
    02:00 +21°C° 0 mm 4 mps 743 mmHg 21%
    03:00 +20°C° 0 mm 4 mps 743 mmHg 21%
    04:00 +20°C° 0 mm 4 mps 743 mmHg 22%
    05:00 +20°C° 0 mm 4 mps 744 mmHg 22%
    06:00 +21°C° 0 mm 5 mps 744 mmHg 22%
    07:00 +21°C° 0 mm 5 mps 744 mmHg 21%
    08:00 +25°C° 0 mm 5 mps 744 mmHg 19%
    09:00 +27°C° 0 mm 5 mps 744 mmHg 16%
    10:00 +29°C° 0 mm 5 mps 744 mmHg 13%
    11:00 +30°C° 0 mm 5 mps 743 mmHg 13%
    12:00 +32°C° 0 mm 5 mps 743 mmHg 12%
    13:00 +33°C° 0 mm 5 mps 742 mmHg 11%
    14:00 +32°C° 0 mm 5 mps 742 mmHg 11%
    15:00 +32°C° 0 mm 6 mps 742 mmHg 11%
    16:00 +32°C° 0 mm 6 mps 742 mmHg 11%
    17:00 +30°C° 0 mm 6 mps 742 mmHg 12%
    18:00 +28°C° 0 mm 5 mps 742 mmHg 14%
    19:00 +27°C° 0 mm 5 mps 742 mmHg 15%
    20:00 +26°C° 0 mm 5 mps 742 mmHg 16%
    21:00 +25°C° 0 mm 5 mps 742 mmHg 16%
    22:00 +25°C° 0 mm 5 mps 742 mmHg 17%
    23:00 +23°C° 0 mm 4 mps 741 mmHg 18%
    Show more

    3.3.7123123